,,,PA_Meas_PMT16A,,PR_Meas_QMR101_102,,RH_Meas_QMH101,,SR_Meas_QMS101,,TA_Meas_QMH101,,GenWind,,GenWind,
date,time,status,PA,status,PR,status,RH,status,SR,status,TA,status,DirAvg,status,SpdAvg,
2011-08-10, 00:00:04,VALID,1001.07,VALID,0,VALID,78.0663,VALID,0,VALID,25.3778,VALID,153,VALID,1.32852,
2011-08-10, 00:01:04,VALID,1001.04,VALID,0,VALID,78.2799,VALID,0,VALID,25.3583,VALID,142,VALID,1.38516,
2011-08-10, 00:02:04,VALID,1000.97,VALID,0,VALID,78.5317,VALID,0,VALID,25.3407,VALID,135,VALID,1.43945,
2011-08-10, 00:03:04,VALID,1001,VALID,0,VALID,78.5851,VALID,0,VALID,25.2802,VALID,140,VALID,1.48672,
2011-08-10, 00:04:04,VALID,1000.99,VALID,0,VALID,78.7835,VALID,0,VALID,25.2802,VALID,137,VALID,0.860937,
2011-08-10, 00:05:04,VALID,1000.96,VALID,0,VALID,78.9818,VALID,0,VALID,25.2412,VALID,137,VALID,0.919141,
2011-08-10, 00:06:04,VALID,1000.92,VALID,0,VALID,79.1344,VALID,0,VALID,25.2021,VALID,133,VALID,0.994141,
2011-08-10, 00:07:04,VALID,1000.94,VALID,0,VALID,79.226,VALID,0,VALID,25.1631,VALID,133,VALID,1.32852,
2011-08-10, 00:08:04,VALID,1000.89,VALID,0,VALID,79.3786,VALID,0,VALID,25.165,VALID,133,VALID,0.903516,
2011-08-10, 00:09:04,VALID,1000.88,VALID,0,VALID,79.4472,VALID,0,VALID,25.165,VALID,133,VALID,0.851563,
2011-08-10, 00:10:04,VALID,1000.9,VALID,0,VALID,79.5617,VALID,0,VALID,25.126,VALID,132,VALID,0.953516,
2011-08-10, 00:11:04,VALID,1000.93,VALID,0,VALID,79.6151,VALID,0,VALID,25.085,VALID,134,VALID,0.814453,
2011-08-10, 00:12:04,VALID,1000.92,VALID,0,VALID,79.699,VALID,0,VALID,25.1064,VALID,154,VALID,1.05156,
2011-08-10, 00:13:04,VALID,1000.94,VALID,0,VALID,79.7982,VALID,0,VALID,25.0655,VALID,146,VALID,0.730469,
2011-08-10, 00:14:04,VALID,1000.94,VALID,0,VALID,79.7295,VALID,0,VALID,25.0869,VALID,137,VALID,0.820703,
2011-08-10, 00:15:04,VALID,1000.93,VALID,0,VALID,79.7066,VALID,0,VALID,25.0655,VALID,131,VALID,0.871875,
2011-08-10, 00:16:04,VALID,1000.89,VALID,0,VALID,79.6914,VALID,0,VALID,25.0655,VALID,136,VALID,1.00859,
2011-08-10, 00:17:04,VALID,1000.88,VALID,0,VALID,79.6456,VALID,0,VALID,25.0869,VALID,130,VALID,1.0375,
2011-08-10, 00:18:04,VALID,1000.88,VALID,0,VALID,79.6303,VALID,0,VALID,25.1064,VALID,127,VALID,0.782031,
2011-08-10, 00:19:04,VALID,1000.85,VALID,0,VALID,79.7448,VALID,0,VALID,25.0869,VALID,125,VALID,0.430078,
2011-08-10, 00:20:04,VALID,1000.83,VALID,0,VALID,79.8821,VALID,0,VALID,25.0674,VALID,125,VALID,0.296484,
2011-08-10, 00:21:04,VALID,1000.83,VALID,0,VALID,80.0271,VALID,0,VALID,25.0284,VALID,125,VALID,0,
2011-08-10, 00:22:04,VALID,1000.82,VALID,0,VALID,80.0957,VALID,0,VALID,25.0088,VALID,125,VALID,0,
2011-08-10, 00:23:04,VALID,1000.84,VALID,0,VALID,80.2255,VALID,0,VALID,24.9484,VALID,125,VALID,0.223047,
2011-08-10, 00:24:04,VALID,1000.82,VALID,0,VALID,80.4925,VALID,0,VALID,24.9503,VALID,125,VALID,0.177344,
2011-08-10, 00:25:04,VALID,1000.85,VALID,0,VALID,80.5612,VALID,0,VALID,24.9289,VALID,125,VALID,0.0832031,
2011-08-10, 00:26:04,VALID,1000.84,VALID,0,VALID,80.523,VALID,0,VALID,24.9112,VALID,125,VALID,0,
2011-08-10, 00:27:04,VALID,1000.85,VALID,0,VALID,80.6298,VALID,0,VALID,24.9308,VALID,137,VALID,0.532422,
2011-08-10, 00:28:04,VALID,1000.82,VALID,0,VALID,80.8511,VALID,0,VALID,24.9112,VALID,139,VALID,0.523828,
2011-08-10, 00:29:04,VALID,1000.85,VALID,0,VALID,80.874,VALID,0,VALID,24.9112,VALID,163,VALID,0.857031,
2011-08-10, 00:30:04,VALID,1000.85,VALID,0,VALID,80.9732,VALID,0,VALID,24.8898,VALID,164,VALID,0.611719,
2011-08-10, 00:31:04,VALID,1000.83,VALID,0,VALID,80.996,VALID,0,VALID,24.9112,VALID,164,VALID,0.709766,
2011-08-10, 00:32:04,VALID,1000.82,VALID,0,VALID,80.9503,VALID,0,VALID,24.9308,VALID,164,VALID,0.691797,
2011-08-10, 00:33:04,VALID,1000.81,VALID,0,VALID,80.6756,VALID,0,VALID,24.9893,VALID,183,VALID,0.771094,
2011-08-10, 00:34:04,VALID,1000.83,VALID,0,VALID,80.6375,VALID,0,VALID,25.0284,VALID,183,VALID,0.674219,
2011-08-10, 00:35:04,VALID,1000.83,VALID,0,VALID,80.7366,VALID,0,VALID,25.0284,VALID,160,VALID,0.980078,
2011-08-10, 00:36:04,VALID,1000.84,VALID,0,VALID,80.4467,VALID,0,VALID,25.0284,VALID,160,VALID,0.737109,
2011-08-10, 00:37:04,VALID,1000.83,VALID,0,VALID,80.584,VALID,0,VALID,25.0674,VALID,155,VALID,0.793359,
2011-08-10, 00:38:04,VALID,1000.86,VALID,0,VALID,80.6069,VALID,0,VALID,25.046,VALID,164,VALID,0.832422,
2011-08-10, 00:39:04,VALID,1000.85,VALID,0,VALID,80.3094,VALID,0,VALID,25.046,VALID,183,VALID,0.901563,
2011-08-10, 00:40:04,VALID,1000.89,VALID,0,VALID,80.1721,VALID,0,VALID,25.0674,VALID,183,VALID,0.844531,
2011-08-10, 00:41:04,VALID,1000.89,VALID,0,VALID,80.0118,VALID,0,VALID,25.0655,VALID,177,VALID,0.751172,
2011-08-10, 00:42:04,VALID,1000.9,VALID,0,VALID,80.0652,VALID,0,VALID,25.0869,VALID,173,VALID,0.476953,
2011-08-10, 00:43:04,VALID,1000.87,VALID,0,VALID,80.0652,VALID,0,VALID,25.0655,VALID,173,VALID,0.462891,
2011-08-10, 00:44:04,VALID,1000.89,VALID,0,VALID,79.8135,VALID,0,VALID,25.0869,VALID,180,VALID,0.789063,
2011-08-10, 00:45:04,VALID,1000.85,VALID,0,VALID,79.7295,VALID,0,VALID,25.085,VALID,174,VALID,0.95,
2011-08-10, 00:46:04,VALID,1000.87,VALID,0,VALID,79.5312,VALID,0,VALID,25.085,VALID,174,VALID,0.483594,
2011-08-10, 00:47:04,VALID,1000.86,VALID,0,VALID,79.5617,VALID,0.112286,VALID,25.1045,VALID,174,VALID,0.541797,
2011-08-10, 00:48:04,VALID,1000.86,VALID,0,VALID,79.7372,VALID,0.112286,VALID,25.085,VALID,174,VALID,0.315625,
2011-08-10, 00:49:04,VALID,1000.87,VALID,0,VALID,79.7066,VALID,0,VALID,25.0674,VALID,174,VALID,0.516406,
2011-08-10, 00:50:04,VALID,1000.88,VALID,0,VALID,79.9126,VALID,0.112286,VALID,25.046,VALID,145,VALID,0.863672,
2011-08-10, 00:51:04,VALID,1000.87,VALID,0,VALID,80.0118,VALID,0.112286,VALID,25.0479,VALID,127,VALID,0.677344,
2011-08-10, 00:52:04,VALID,1000.89,VALID,0,VALID,80.1797,VALID,0,VALID,25.0069,VALID,127,VALID,0.619141,
2011-08-10, 00:53:04,VALID,1000.9,VALID,0,VALID,80.4925,VALID,0.112286,VALID,25.0284,VALID,127,VALID,0.746094,
2011-08-10, 00:54:04,VALID,1000.89,VALID,0,VALID,80.2636,VALID,0,VALID,24.9874,VALID,127,VALID,0.867188,
2011-08-10, 00:55:04,VALID,1000.85,VALID,0,VALID,80.378,VALID,0,VALID,25.0069,VALID,127,VALID,0.990625,
2011-08-10, 00:56:04,VALID,1000.87,VALID,0,VALID,80.3857,VALID,0.112286,VALID,24.9874,VALID,127,VALID,1.09453,
2011-08-10, 00:57:04,VALID,1000.84,VALID,0,VALID,80.3246,VALID,0,VALID,24.9893,VALID,127,VALID,1.13672,
2011-08-10, 00:58:04,VALID,1000.81,VALID,0,VALID,80.2407,VALID,0.112286,VALID,24.9679,VALID,127,VALID,1.04922,
2011-08-10, 00:59:04,VALID,1000.82,VALID,0,VALID,80.4467,VALID,0,VALID,24.9679,VALID,127,VALID,0.867578,
2011-08-10, 01:00:04,VALID,1000.8,VALID,0,VALID,80.5688,VALID,0,VALID,24.9484,VALID,127,VALID,0.612891,
2011-08-10, 01:01:04,VALID,1000.8,VALID,0,VALID,80.5612,VALID,0,VALID,24.9308,VALID,127,VALID,0.551172,
2011-08-10, 01:02:04,VALID,1000.8,VALID,0,VALID,80.4391,VALID,0,VALID,24.9503,VALID,127,VALID,0.483984,
2011-08-10, 01:03:04,VALID,1000.81,VALID,0,VALID,80.2712,VALID,0,VALID,24.9503,VALID,138,VALID,0.589453,
2011-08-10, 01:04:04,VALID,1000.77,VALID,0,VALID,79.8821,VALID,0,VALID,24.9308,VALID,140,VALID,0.557031,
2011-08-10, 01:05:04,VALID,1000.77,VALID,0,VALID,79.699,VALID,0,VALID,24.9503,VALID,140,VALID,0.505859,
2011-08-10, 01:06:04,VALID,1000.76,VALID,0,VALID,80.0042,VALID,0,VALID,24.9503,VALID,140,VALID,0.491406,
2011-08-10, 01:07:04,VALID,1000.76,VALID,0,VALID,80.7214,VALID,0,VALID,24.9308,VALID,140,VALID,0.496094,
2011-08-10, 01:08:04,VALID,1000.78,VALID,0,VALID,81.1792,VALID,0,VALID,24.9112,VALID,140,VALID,0.665234,
2011-08-10, 01:09:04,VALID,1000.77,VALID,0,VALID,81.6446,VALID,0,VALID,24.8722,VALID,140,VALID,0.630078,
2011-08-10, 01:10:04,VALID,1000.79,VALID,0,VALID,81.7056,VALID,0,VALID,24.8527,VALID,140,VALID,0.640234,
2011-08-10, 01:11:04,VALID,1000.78,VALID,0,VALID,81.7361,VALID,0,VALID,24.8527,VALID,140,VALID,0.687109,
2011-08-10, 01:12:04,VALID,1000.78,VALID,0,VALID,81.6293,VALID,0,VALID,24.8546,VALID,140,VALID,0.588672,
2011-08-10, 01:13:04,VALID,1000.8,VALID,0,VALID,81.7438,VALID,0,VALID,24.8527,VALID,140,VALID,0.671094,
2011-08-10, 01:14:04,VALID,1000.77,VALID,0,VALID,81.8735,VALID,0,VALID,24.8722,VALID,140,VALID,0.656641,
2011-08-10, 01:15:04,VALID,1000.77,VALID,0,VALID,82.0795,VALID,0,VALID,24.8527,VALID,140,VALID,0.49375,
2011-08-10, 01:16:04,VALID,1000.81,VALID,0,VALID,81.9879,VALID,0,VALID,24.8741,VALID,140,VALID,0.362891,
2011-08-10, 01:17:04,VALID,1000.82,VALID,0,VALID,82.2931,VALID,0,VALID,24.8332,VALID,140,VALID,0.403125,
2011-08-10, 01:18:04,VALID,1000.83,VALID,0,VALID,82.5372,VALID,0,VALID,24.8136,VALID,140,VALID,0.448828,
2011-08-10, 01:19:04,VALID,1000.81,VALID,0,VALID,82.6898,VALID,0,VALID,24.8136,VALID,140,VALID,0.641406,
2011-08-10, 01:20:04,VALID,1000.82,VALID,0,VALID,83.1323,VALID,0,VALID,24.8136,VALID,79,VALID,0.880859,
2011-08-10, 01:21:04,VALID,1000.85,VALID,0,VALID,83.6206,VALID,0,VALID,24.7746,VALID,65,VALID,1.11094,
2011-08-10, 01:22:04,VALID,1000.83,VALID,0,VALID,84.2615,VALID,0,VALID,24.6965,VALID,65,VALID,1.11172,
2011-08-10, 01:23:04,VALID,1000.86,VALID,0,VALID,84.8185,VALID,0,VALID,24.5794,VALID,21,VALID,1.27227,
2011-08-10, 01:24:04,VALID,1000.85,VALID,0,VALID,85.3144,VALID,0,VALID,24.4428,VALID,22,VALID,1.3668,
2011-08-10, 01:25:04,VALID,1000.84,VALID,0,VALID,85.818,VALID,0,VALID,24.3452,VALID,22,VALID,1.22812,
2011-08-10, 01:26:04,VALID,1000.84,VALID,0,VALID,86.23,VALID,0,VALID,24.2671,VALID,22,VALID,1.07266,
2011-08-10, 01:27:04,VALID,1000.84,VALID,0,VALID,86.6267,VALID,0,VALID,24.1891,VALID,22,VALID,1.07227,
2011-08-10, 01:28:04,VALID,1000.85,VALID,0,VALID,86.8861,VALID,0,VALID,24.15,VALID,22,VALID,0.976953,
2011-08-10, 01:29:04,VALID,1000.84,VALID,0,VALID,87.0616,VALID,0,VALID,24.111,VALID,26,VALID,0.972656,
2011-08-10, 01:30:04,VALID,1000.84,VALID,0,VALID,87.1837,VALID,0,VALID,24.072,VALID,28,VALID,0.743359,
2011-08-10, 01:31:04,VALID,1000.84,VALID,0,VALID,87.3973,VALID,0.112286,VALID,24.0506,VALID,28,VALID,0.642578,
2011-08-10, 01:32:04,VALID,1000.81,VALID,0,VALID,87.5194,VALID,0,VALID,24.0506,VALID,28,VALID,0.612891,
2011-08-10, 01:33:04,VALID,1000.81,VALID,0,VALID,87.6033,VALID,0.112286,VALID,24.0506,VALID,28,VALID,0.785937,
2011-08-10, 01:34:04,VALID,1000.79,VALID,0,VALID,87.6949,VALID,0,VALID,24.0116,VALID,59,VALID,0.874609,
2011-08-10, 01:35:04,VALID,1000.79,VALID,0,VALID,87.7559,VALID,0,VALID,24.0329,VALID,59,VALID,0.908203,
2011-08-10, 01:36:04,VALID,1000.79,VALID,0,VALID,87.794,VALID,0,VALID,24.0116,VALID,65,VALID,0.935156,
2011-08-10, 01:37:04,VALID,1000.78,VALID,0,VALID,87.733,VALID,0,VALID,23.9921,VALID,65,VALID,0.785547,
2011-08-10, 01:38:04,VALID,1000.76,VALID,0,VALID,87.6872,VALID,0,VALID,23.9921,VALID,65,VALID,0.735156,
2011-08-10, 01:39:04,VALID,1000.76,VALID,0,VALID,87.7025,VALID,0,VALID,23.9531,VALID,65,VALID,0.602344,
2011-08-10, 01:40:04,VALID,1000.76,VALID,0,VALID,87.7483,VALID,0.112286,VALID,23.9336,VALID,65,VALID,0.471484,
2011-08-10, 01:41:04,VALID,1000.72,VALID,0,VALID,87.8246,VALID,0,VALID,23.914,VALID,65,VALID,0.6,
2011-08-10, 01:42:04,VALID,1000.69,VALID,0,VALID,87.9237,VALID,0,VALID,23.9159,VALID,65,VALID,0.678125,
2011-08-10, 01:43:04,VALID,1000.69,VALID,0,VALID,88.0306,VALID,0,VALID,23.875,VALID,65,VALID,0.795703,
2011-08-10, 01:44:04,VALID,1000.71,VALID,0,VALID,88.145,VALID,0,VALID,23.836,VALID,63,VALID,0.911719,
2011-08-10, 01:45:04,VALID,1000.69,VALID,0,VALID,88.2747,VALID,0,VALID,23.8165,VALID,48,VALID,1.02188,
2011-08-10, 01:46:04,VALID,1000.66,VALID,0,VALID,88.3205,VALID,0.112286,VALID,23.7775,VALID,37,VALID,1.1582,
2011-08-10, 01:47:04,VALID,1000.64,VALID,0,VALID,88.3663,VALID,0,VALID,23.7384,VALID,36,VALID,1.06445,
2011-08-10, 01:48:04,VALID,1000.66,VALID,0,VALID,88.3892,VALID,0,VALID,23.6994,VALID,36,VALID,1.01055,
2011-08-10, 01:49:04,VALID,1000.62,VALID,0,VALID,88.4654,VALID,0,VALID,23.6817,VALID,28,VALID,1.00664,
2011-08-10, 01:50:04,VALID,1000.61,VALID,0,VALID,88.5189,VALID,0,VALID,23.6622,VALID,28,VALID,0.862891,
2011-08-10, 01:51:04,VALID,1000.61,VALID,0,VALID,88.5951,VALID,0.112286,VALID,23.6214,VALID,28,VALID,0.807031,
2011-08-10, 01:52:04,VALID,1000.57,VALID,0,VALID,88.6333,VALID,0,VALID,23.6409,VALID,28,VALID,0.635547,
2011-08-10, 01:53:04,VALID,1000.59,VALID,0,VALID,88.6409,VALID,0,VALID,23.6214,VALID,28,VALID,0.559375,
2011-08-10, 01:54:04,VALID,1000.57,VALID,0,VALID,88.618,VALID,0,VALID,23.6427,VALID,28,VALID,0.341797,
2011-08-10, 01:55:04,VALID,1000.55,VALID,0,VALID,88.5951,VALID,0,VALID,23.6019,VALID,28,VALID,0.378906,
2011-08-10, 01:56:04,VALID,1000.55,VALID,0,VALID,88.6028,VALID,0,VALID,23.6232,VALID,28,VALID,0.542969,
2011-08-10, 01:57:04,VALID,1000.54,VALID,0,VALID,88.6028,VALID,0,VALID,23.6232,VALID,18,VALID,0.753125,
2011-08-10, 01:58:04,VALID,1000.54,VALID,0,VALID,88.5036,VALID,0,VALID,23.6427,VALID,18,VALID,0.569531,
2011-08-10, 01:59:04,VALID,1000.51,VALID,0,VALID,88.5341,VALID,0,VALID,23.6622,VALID,18,VALID,0.644531,
2011-08-10, 02:00:04,VALID,1000.54,VALID,0,VALID,88.4578,VALID,0,VALID,23.6427,VALID,18,VALID,0.678906,
2011-08-10, 02:01:04,VALID,1000.53,VALID,0,VALID,88.4044,VALID,0,VALID,23.6232,VALID,18,VALID,0.709766,
2011-08-10, 02:02:04,VALID,1000.56,VALID,0,VALID,88.3357,VALID,0,VALID,23.6232,VALID,18,VALID,0.513281,
2011-08-10, 02:03:04,VALID,1000.54,VALID,0,VALID,88.3739,VALID,0,VALID,23.6427,VALID,18,VALID,0.422266,
2011-08-10, 02:04:04,VALID,1000.52,VALID,0,VALID,88.3815,VALID,0,VALID,23.6427,VALID,18,VALID,0.404687,
2011-08-10, 02:05:04,VALID,1000.53,VALID,0,VALID,88.2594,VALID,0,VALID,23.6214,VALID,18,VALID,0.335938,
2011-08-10, 02:06:04,VALID,1000.54,VALID,0,VALID,88.206,VALID,0,VALID,23.6232,VALID,18,VALID,0.348437,
2011-08-10, 02:07:04,VALID,1000.54,VALID,0,VALID,88.1603,VALID,0,VALID,23.6232,VALID,18,VALID,0.457422,
2011-08-10, 02:08:04,VALID,1000.54,VALID,0,VALID,88.1603,VALID,0,VALID,23.6019,VALID,18,VALID,0.292188,
2011-08-10, 02:09:04,VALID,1000.51,VALID,0,VALID,88.1679,VALID,0,VALID,23.6214,VALID,18,VALID,0.350391,
2011-08-10, 02:10:04,VALID,1000.5,VALID,0,VALID,88.1908,VALID,0.112286,VALID,23.6622,VALID,18,VALID,0.269531,
2011-08-10, 02:11:04,VALID,1000.52,VALID,0,VALID,88.1374,VALID,0,VALID,23.6427,VALID,18,VALID,0.262891,
2011-08-10, 02:12:04,VALID,1000.48,VALID,0,VALID,88.145,VALID,0,VALID,23.6214,VALID,18,VALID,0.291797,
2011-08-10, 02:13:04,VALID,1000.48,VALID,0,VALID,88.1679,VALID,0,VALID,23.6214,VALID,18,VALID,0.342187,
2011-08-10, 02:14:04,VALID,1000.47,VALID,0,VALID,88.1832,VALID,0.112286,VALID,23.6409,VALID,18,VALID,0.429688,
2011-08-10, 02:15:04,VALID,1000.48,VALID,0,VALID,88.1755,VALID,0,VALID,23.6214,VALID,18,VALID,0.507422,
2011-08-10, 02:16:04,VALID,1000.47,VALID,0,VALID,88.1679,VALID,0,VALID,23.6232,VALID,18,VALID,0.430859,
2011-08-10, 02:17:04,VALID,1000.44,VALID,0,VALID,88.1145,VALID,0,VALID,23.625,VALID,18,VALID,0.509375,
2011-08-10, 02:18:04,VALID,1000.45,VALID,0,VALID,87.9924,VALID,0,VALID,23.625,VALID,18,VALID,0.566406,
2011-08-10, 02:19:04,VALID,1000.46,VALID,0,VALID,87.6796,VALID,0,VALID,23.6036,VALID,18,VALID,0.509375,
2011-08-10, 02:20:04,VALID,1000.44,VALID,0,VALID,87.466,VALID,0,VALID,23.6427,VALID,18,VALID,0.425781,
2011-08-10, 02:21:04,VALID,1000.47,VALID,0,VALID,87.4278,VALID,0,VALID,23.6622,VALID,18,VALID,0.496094,
2011-08-10, 02:22:04,VALID,1000.46,VALID,0,VALID,87.466,VALID,0,VALID,23.6817,VALID,18,VALID,0.171094,
2011-08-10, 02:23:04,VALID,1000.46,VALID,0,VALID,87.4736,VALID,0,VALID,23.7012,VALID,18,VALID,0.0476562,
2011-08-10, 02:24:04,VALID,1000.48,VALID,0,VALID,87.5117,VALID,0,VALID,23.7012,VALID,18,VALID,0.003125,
2011-08-10, 02:25:04,VALID,1000.5,VALID,0,VALID,87.6567,VALID,0,VALID,23.7012,VALID,18,VALID,0.0078125,
2011-08-10, 02:26:04,VALID,1000.47,VALID,0,VALID,87.7788,VALID,0,VALID,23.7207,VALID,18,VALID,0.189453,
2011-08-10, 02:27:04,VALID,1000.48,VALID,0,VALID,87.8551,VALID,0,VALID,23.7207,VALID,18,VALID,0.232031,
2011-08-10, 02:28:04,VALID,1000.51,VALID,0,VALID,87.9695,VALID,0,VALID,23.7207,VALID,18,VALID,0.385938,
2011-08-10, 02:29:04,VALID,1000.47,VALID,0,VALID,88.1908,VALID,0,VALID,23.7402,VALID,18,VALID,0.333203,
2011-08-10, 02:30:04,VALID,1000.48,VALID,0,VALID,88.3205,VALID,0,VALID,23.7597,VALID,18,VALID,0.219922,
2011-08-10, 02:31:04,VALID,1000.47,VALID,0,VALID,88.3968,VALID,0,VALID,23.7793,VALID,18,VALID,0.254297,
2011-08-10, 02:32:04,VALID,1000.46,VALID,0,VALID,88.4578,VALID,0,VALID,23.7793,VALID,18,VALID,0.169531,
2011-08-10, 02:33:04,VALID,1000.46,VALID,0,VALID,88.4883,VALID,0,VALID,23.7988,VALID,18,VALID,0.173047,
2011-08-10, 02:34:04,VALID,1000.43,VALID,0,VALID,88.5646,VALID,0,VALID,23.8183,VALID,18,VALID,0.278906,
2011-08-10, 02:35:04,VALID,1000.44,VALID,0,VALID,88.6562,VALID,0,VALID,23.8378,VALID,18,VALID,0.266016,
2011-08-10, 02:36:04,VALID,1000.41,VALID,0,VALID,88.7783,VALID,0,VALID,23.8573,VALID,18,VALID,0.35625,
2011-08-10, 02:37:04,VALID,1000.43,VALID,0,VALID,88.9537,VALID,0,VALID,23.9177,VALID,18,VALID,0.281641,
2011-08-10, 02:38:04,VALID,1000.42,VALID,0,VALID,89.0453,VALID,0,VALID,23.9159,VALID,18,VALID,0.466016,
2011-08-10, 02:39:04,VALID,1000.4,VALID,0,VALID,89.0911,VALID,0,VALID,23.9549,VALID,18,VALID,0.383594,
2011-08-10, 02:40:04,VALID,1000.37,VALID,0,VALID,89.0071,VALID,0,VALID,23.9549,VALID,18,VALID,0.333203,
2011-08-10, 02:41:04,VALID,1000.38,VALID,0,VALID,88.7783,VALID,0,VALID,23.9354,VALID,18,VALID,0.427344,
2011-08-10, 02:42:04,VALID,1000.4,VALID,0,VALID,88.3205,VALID,0,VALID,23.9549,VALID,108,VALID,0.466406,
2011-08-10, 02:43:04,VALID,1000.37,VALID,0,VALID,88.0229,VALID,0,VALID,23.9744,VALID,108,VALID,0.496094,
2011-08-10, 02:44:04,VALID,1000.39,VALID,0,VALID,87.3363,VALID,0,VALID,23.9939,VALID,108,VALID,0.658203,
2011-08-10, 02:45:04,VALID,1000.39,VALID,0,VALID,86.6725,VALID,0,VALID,24.0329,VALID,108,VALID,0.997656,
2011-08-10, 02:46:04,VALID,1000.4,VALID,0,VALID,86.1003,VALID,0,VALID,24.0915,VALID,108,VALID,0.803125,
2011-08-10, 02:47:04,VALID,1000.38,VALID,0,VALID,85.2534,VALID,0,VALID,24.15,VALID,126,VALID,0.84375,
2011-08-10, 02:48:04,VALID,1000.4,VALID,0,VALID,84.8185,VALID,0,VALID,24.1872,VALID,126,VALID,0.738281,
2011-08-10, 02:49:04,VALID,1000.4,VALID,0,VALID,84.4828,VALID,0,VALID,24.2671,VALID,126,VALID,0.779297,
2011-08-10, 02:50:04,VALID,1000.4,VALID,0,VALID,84.0403,VALID,0,VALID,24.3043,VALID,126,VALID,0.787109,
2011-08-10, 02:51:04,VALID,1000.37,VALID,0,VALID,83.5062,VALID,0,VALID,24.3452,VALID,126,VALID,0.760938,
2011-08-10, 02:52:04,VALID,1000.38,VALID,0,VALID,83.4299,VALID,0,VALID,24.4037,VALID,126,VALID,0.705859,
2011-08-10, 02:53:04,VALID,1000.38,VALID,0,VALID,83.0713,VALID,0,VALID,24.4428,VALID,126,VALID,0.740625,
2011-08-10, 02:54:04,VALID,1000.36,VALID,0,VALID,82.8729,VALID,0,VALID,24.4623,VALID,132,VALID,0.950391,
2011-08-10, 02:55:04,VALID,1000.35,VALID,0,VALID,82.8119,VALID,0,VALID,24.48,VALID,141,VALID,1.06289,
2011-08-10, 02:56:04,VALID,1000.33,VALID,0,VALID,82.2931,VALID,0,VALID,24.5209,VALID,149,VALID,1.16406,
2011-08-10, 02:57:04,VALID,1000.3,VALID,0,VALID,81.6903,VALID,0,VALID,24.5794,VALID,167,VALID,1.33398,
2011-08-10, 02:58:04,VALID,1000.29,VALID,0,VALID,81.4157,VALID,0,VALID,24.638,VALID,156,VALID,1.43164,
2011-08-10, 02:59:04,VALID,1000.27,VALID,0,VALID,81.0418,VALID,0,VALID,24.6575,VALID,148,VALID,1.54727,
2011-08-10, 03:00:04,VALID,1000.24,VALID,0,VALID,80.6298,VALID,0,VALID,24.6965,VALID,153,VALID,1.69805,
2011-08-10, 03:01:04,VALID,1000.22,VALID,0,VALID,80.584,VALID,0,VALID,24.7356,VALID,149,VALID,1.40313,
2011-08-10, 03:02:04,VALID,1000.21,VALID,0,VALID,80.6222,VALID,0,VALID,24.7551,VALID,152,VALID,1.15703,
2011-08-10, 03:03:04,VALID,1000.2,VALID,0,VALID,80.4467,VALID,0,VALID,24.7551,VALID,153,VALID,1.1375,
2011-08-10, 03:04:04,VALID,1000.17,VALID,0,VALID,80.2331,VALID,0,VALID,24.7746,VALID,149,VALID,1.23633,
2011-08-10, 03:05:04,VALID,1000.16,VALID,0,VALID,80.2865,VALID,0,VALID,24.7746,VALID,148,VALID,1.09961,
2011-08-10, 03:06:04,VALID,1000.18,VALID,0,VALID,80.2178,VALID,0,VALID,24.757,VALID,142,VALID,1.29609,
2011-08-10, 03:07:04,VALID,1000.15,VALID,0,VALID,79.9279,VALID,0,VALID,24.757,VALID,141,VALID,1.17148,
2011-08-10, 03:08:04,VALID,1000.17,VALID,0,VALID,79.9966,VALID,0,VALID,24.7551,VALID,139,VALID,1.22812,
2011-08-10, 03:09:04,VALID,1000.18,VALID,0,VALID,80.2636,VALID,0,VALID,24.7356,VALID,134,VALID,0.919141,
2011-08-10, 03:10:04,VALID,1000.14,VALID,0,VALID,80.0118,VALID,0,VALID,24.716,VALID,139,VALID,0.944141,
2011-08-10, 03:11:04,VALID,1000.13,VALID,0,VALID,79.76,VALID,0,VALID,24.6965,VALID,127,VALID,1.26133,
2011-08-10, 03:12:04,VALID,1000.09,VALID,0,VALID,79.4854,VALID,0,VALID,24.677,VALID,135,VALID,1.37383,
2011-08-10, 03:13:04,VALID,1000.05,VALID,0,VALID,79.2489,VALID,0,VALID,24.716,VALID,136,VALID,1.51719,
2011-08-10, 03:14:04,VALID,1000.04,VALID,0,VALID,79.699,VALID,0,VALID,24.7356,VALID,139,VALID,1.29102,
2011-08-10, 03:15:04,VALID,1000.02,VALID,0,VALID,79.2183,VALID,0,VALID,24.716,VALID,133,VALID,1.76367,
2011-08-10, 03:16:04,VALID,1000.01,VALID,0,VALID,79.4472,VALID,0,VALID,24.716,VALID,135,VALID,1.74609,
2011-08-10, 03:17:04,VALID,999.967,VALID,0,VALID,79.3557,VALID,0,VALID,24.6965,VALID,134,VALID,2.12305,
2011-08-10, 03:18:04,VALID,999.968,VALID,0,VALID,79.6685,VALID,0,VALID,24.677,VALID,132,VALID,1.54883,
2011-08-10, 03:19:04,VALID,999.963,VALID,0,VALID,79.4549,VALID,0,VALID,24.6575,VALID,132,VALID,1.85586,
2011-08-10, 03:20:04,VALID,1000,VALID,0,VALID,79.5998,VALID,0,VALID,24.6575,VALID,137,VALID,1.93516,
2011-08-10, 03:21:04,VALID,999.96,VALID,0,VALID,79.7143,VALID,0,VALID,24.638,VALID,145,VALID,1.98047,
2011-08-10, 03:22:04,VALID,999.947,VALID,0,VALID,79.4778,VALID,0,VALID,24.6184,VALID,139,VALID,2.23086,
2011-08-10, 03:23:05,VALID,999.939,VALID,0,VALID,79.2565,VALID,0,VALID,24.638,VALID,150,VALID,2.14648,
2011-08-10, 03:24:05,VALID,999.882,VALID,0,VALID,78.9132,VALID,0,VALID,24.6965,VALID,155,VALID,2.52344,
2011-08-10, 03:25:05,VALID,999.852,VALID,0,VALID,78.814,VALID,0,VALID,24.7356,VALID,150,VALID,2.35313,
2011-08-10, 03:26:05,VALID,999.822,VALID,0,VALID,78.5775,VALID,0,VALID,24.7746,VALID,149,VALID,2.2375,
2011-08-10, 03:27:05,VALID,999.807,VALID,0,VALID,78.2494,VALID,0,VALID,24.7941,VALID,155,VALID,2.42383,
2011-08-10, 03:28:05,VALID,999.805,VALID,0,VALID,78.0205,VALID,0,VALID,24.8332,VALID,147,VALID,2.19336,
2011-08-10, 03:29:05,VALID,999.799,VALID,0,VALID,77.9442,VALID,0,VALID,24.8527,VALID,151,VALID,2.28125,
2011-08-10, 03:30:05,VALID,999.794,VALID,0,VALID,77.9595,VALID,0,VALID,24.8741,VALID,147,VALID,2.11836,
2011-08-10, 03:31:05,VALID,999.789,VALID,0,VALID,78.0205,VALID,0,VALID,24.8332,VALID,146,VALID,2.17539,
2011-08-10, 03:32:05,VALID,999.837,VALID,0,VALID,77.9518,VALID,0,VALID,24.8332,VALID,145,VALID,1.99063,
2011-08-10, 03:33:05,VALID,999.84,VALID,0,VALID,78.1273,VALID,0,VALID,24.8136,VALID,140,VALID,1.68438,
2011-08-10, 03:34:05,VALID,999.855,VALID,0,VALID,77.639,VALID,0,VALID,24.8136,VALID,148,VALID,1.70938,
2011-08-10, 03:35:05,VALID,999.878,VALID,0,VALID,77.3109,VALID,0,VALID,24.8136,VALID,144,VALID,1.96094,
2011-08-10, 03:36:05,VALID,999.833,VALID,0,VALID,77.2118,VALID,0,VALID,24.8527,VALID,148,VALID,1.32852,
2011-08-10, 03:37:05,VALID,999.817,VALID,0,VALID,77.2499,VALID,0,VALID,24.8722,VALID,144,VALID,1.20234,
2011-08-10, 03:38:05,VALID,999.804,VALID,0,VALID,77.4406,VALID,0,VALID,24.8332,VALID,147,VALID,0.944141,
2011-08-10, 03:39:05,VALID,999.808,VALID,0,VALID,77.7611,VALID,0,VALID,24.8136,VALID,147,VALID,0.571484,
2011-08-10, 03:40:05,VALID,999.832,VALID,0,VALID,77.494,VALID,0,VALID,24.7941,VALID,139,VALID,0.925,
2011-08-10, 03:41:05,VALID,999.849,VALID,0,VALID,77.4406,VALID,0,VALID,24.7746,VALID,144,VALID,0.935156,
2011-08-10, 03:42:05,VALID,999.885,VALID,0,VALID,77.4788,VALID,0,VALID,24.7551,VALID,136,VALID,1.14063,
2011-08-10, 03:43:05,VALID,999.891,VALID,0,VALID,77.6543,VALID,0,VALID,24.7551,VALID,140,VALID,0.936328,
2011-08-10, 03:44:05,VALID,999.936,VALID,0,VALID,77.6772,VALID,0,VALID,24.7551,VALID,144,VALID,0.635938,
2011-08-10, 03:45:05,VALID,999.929,VALID,0,VALID,77.372,VALID,0,VALID,24.7551,VALID,146,VALID,0.765625,